OBJECT A, 51824

Orbit data source: Space-Track

You're viewing an Uncataloged Satellite

Recently launched and/or uncataloged satellites may have evolving metadata. Metadata may include but not limited to: Owner, Maufacturer, Bus, Motor, and Mission.

OBJECT A, 51824 is a satellite owned by Weina (CN) in SSO that was launched on Sun, 27 Feb 2022 UTC via a CHANG ZHENG 8 launch vehicle from the Wenchang Satellite Launch Center (WSC). Unknown objects in Earth's orbit typically refer to objects detected orbiting the Earth but have not yet been identified or cataloged. These objects could be anything from previously untracked satellites, spent rocket stages, debris from satellite collisions, or even natural meteoroids temporarily captured by Earth's gravity.

Loading next visibility...
Identifier
51824, 2022-019A
Orbit
SSO
Country
Flag of CNCN / PRC
Related business
None
Manufacturer
Weina
Mission
Non-operational Commercial Radar Imaging
Bus & Motor
MN200, Unknown motor
Mass
350 kg wet, 350 kg dry
Launch date (UTC)
2022-02-27 (4 years ago)
Launch vehicle
CHANG ZHENG 8
Launch site
Wenchang Satellite Launch Center (WSC)
Object type
Unknown
Shape & HBR
Box + 3 Pan, 3.0 m
Radar Cross Section
3.533 m², Large (>1 m²)

Expand to show TLE details & history
Last TLE update: 15 hours ago

TLE from 15 hours ago
0 OBJECT A
1 51824U 22019A   25258.53021241  .00081271  00000-0  95883-3 0  9999
2 51824  97.3818 342.6651 0006054  45.1458 315.0290 15.61063681197393
Epoch: 2025-09-15T12:43Z
TLE epoch observation values (Epoch: 2025-09-15T12:43:30.352Z)
Latitude
-0.00003°
Longitude
157.05509°
Altitude
384.834 km
Speed
7.681 km/s
True Right ascension
22h 50m 39s
True Declination
0° 00' 00"
Sunlit
Object was in full shadow at epoch
Visualization orbit readout
Latitude
Unknown
Longitude
Unknown
Altitude
Unknown
Speed
Unknown
Apparent Right ascension
Unknown
Apparent Declination
Unknown
Sunlit
N/A
Visualization observer readout
Local Sidereal Time
20:35:50
Azimuth
Unknown
Elevation
Unknown
Doppler factor
Unknown
Orbital elements
Apogee altitude
385.586 km
Perigee altitude
377.401 km
Semi-major axis
6,759.631 km
Eccentricity
0.00061
Inclination
97.3818°
RAAN
342.6651°
Arg. of periapsis
45.1458°
True anomaly
314.97994°
Mean anomaly
315.029°
Eccentric anomaly
315.00447°
Mean motion
3.90534 °/min
Orbital period
92.18 mins
BSTAR
0.00095883
Loading maneuver chart data...
Computing Atmospheric mass density...
Loading historical data...
Loading historical data...
Loading historical data...
Loading historical data...
Loading historical data...
Loading historical data...
Loading historical data...

Documentation

Showing up to 5 results
|